Location: Newark
(45.2500°N, 7.5833°E)
Time: 19:09:38
(UTC+00:00)

SR - Pass Details

Date: 26 January 2020
Orbit: 575 x 881 km, 66.7° (Epoch: 17 February)

Event Time Altitude Azimuth Distance (km) Brightness Sun altitude
Exits shadow 03:38:19 11° 8° (N) 2,380 ? -34.9°
Maximum altitude 03:39:37 12° 22° (NNE) 2,307 ? -34.7°
Drops below altitude 10° 03:41:40 10° 44° (NE) 2,410 ? -34.3°
Sets 03:45:50 0° 75° (ENE) 3,261 ? -33.6°
